Regional Weather Roundup
Issued by NWS Newport/Morehead, NC

Current Version | Previous Version | Graphics & Text | Print | Product List | Glossary On
Versions: 1 2 3 4 5 6 7 8 9 10 11 12 13 14 15 16 17 18 19 20 21 22 23 24 25 26 27 28 29 30 31 32 33 34 35 36 37 38 39 40 41 42 43 44 45 46 47 48 49 50
000 ASUS42 KMHX 222225 RWRMHX WEATHER ROUNDUP FOR EASTERN NORTH CAROLINA NATIONAL WEATHER SERVICE NEWPORT/MOREHEAD CITY NC 600 PM EDT FRI MAY 22 2015 NOTE: "FAIR" INDICATES FEW OR NO CLOUDS BELOW 12,000 FEET WITH NO SIGNIFICANT WEATHER AND/OR OBSTRUCTIONS TO VISIBILITY NCZ015>017-031-032-045>047-102-103-222300- NORTH COAST CITY SKY/WX TMP DP RH WIND PRES REMARKS EDENTON SUNNY 72 46 40 NW6 30.18R ELIZABETH CITY SUNNY 71 50 47 S5 30.16F KITTY HAWK CLEAR 67 41 38 E5 30.17S MANTEO SUNNY 67 44 44 E6 30.18S $$ NCZ045>047-081-094-103-104-222300- CENTRAL COAST CITY SKY/WX TMP DP RH WIND PRES REMARKS FRISCO SUNNY 67 44 43 VRB5 30.20R SWANQUARTER N/A 72 N/A N/A SE6 30.15S $$ NCZ095-097-098-100-101-222300- SOUTHERN COAST CITY SKY/WX TMP DP RH WIND PRES REMARKS BEAUFORT MOSUNNY 70 55 59 SE12 30.18R CEDAR ISLAND N/A 72 N/A N/A N5 30.24R JACKSONVILLE MOSUNNY 74 49 41 VRB3 30.18R PINEY ISLAND CLEAR N/A N/A N/A N5 30.18S WILMINGTON CLOUDY 71 57 61 VRB3 30.18R $$ NCZ011>013-027>030-043-044-078>080-089-090>093-098-222300- COASTAL PLAIN CITY SKY/WX TMP DP RH WIND PRES REMARKS AHOSKIE SUNNY 71 42 35 CALM 30.17S CLINTON SUNNY 74 49 41 NW5 30.19S ELIZABETHTOWN SUNNY 74 49 40 CALM 30.18S GOLDSBORO SUNNY 74 45 35 CALM 30.16R GREENVILLE SUNNY 72 45 37 CALM 30.19S HAVELOCK SUNNY 74 49 41 NW6 30.19R KENANSVILLE MOSUNNY 72 46 39 CALM 30.20R KINSTON SUNNY 73 43 33 NW3 30.19R NEW BERN SUNNY 72 47 40 CALM 30.19S RICHLANDS SUNNY 73 46 38 W3 30.19S ROCKY MOUNT SUNNY 73 44 35 N6 30.18S WASHINGTON SUNNY N/A N/A N/A CALM 30.19R WHITEVILLE SUNNY 74 51 44 N3 30.17S $$ AMZ130-135-150-152-154-156-158-170-250-252-270-ANZ085-086-088-633-658-670-222300- MARINE OBSERVATIONS STATION/POSITION TIME TEMP WIND PRES WAVE SWELL AIR SEA DIR/SP/G HT/PER HT/PER (UTC) (F) (DEG/KT/KT) (MB) (FT/S) (FT/S) CHESAPEAKE LIGHT 2200 64 190/ 6/ 7 1021.6 64 E VA BEACH 2150 62 61 260/ 8/ 8 1021.2 4/ 6 3/ 6 DUCK 2200 67 68 110/ 6/ 7 1021.0 2 E DUCK 2111 66 N/A 3/ 8 OREGON INLET 2200 64 68 50/ 7/ 9 1022.0 13E OREGON INLT 2200 62 N/A 3/ 7 HATTERAS CG 2200 67 72 350/ 4/ 7 1022.0 DIAMOND BUOY 2150 66 77 20/ 8/ 10 1022.4 3/ 8 3/ 8 CAPE LOOKOUT 2200 67 110/ 7/ 8 1021.9 BEAUFORT LAB 2200 69 75 150/ 8/ 13 1021.2 27 SE WRIGHTSVLE 2200 66 77 120/ 4/ 6 N/A 5 SE WRIGHTSVLE 2108 70 77 140/ 6/ 10 1022.1 225 S CAPE HAT 2150 73 75 60/ 16/ 19 1020.2 5/ 6 2/ 9 41 SE CHARLESTON 2150 70 76 40/ 16/ 17 1021.0 5/ 6 2/12 $$

USA.gov is the U.S. government's official web portal to all federal, state and local government web resources and services.